DW2199 Weather Reports


Display with metric or nautical units.
time (UTC)temp
F
wind
direction
speed
MPH
gust
MPH
rain 1hr
in
rain 24hr
in
rain mn
in
humidity
%
barometer
mb
20260504081524 47 4 0.0 2.0 0.00 0.00 0.00 77 1008.2
20260504044645 43 218 0.0 1.0 0.00 0.00 0.00 80 1008.9
20260504043047 43 218 0.0 0.0 0.00 0.00 0.00 78 1009.0
20260504041534 42 218 0.0 0.0 0.00 0.00 0.00 75 1009.0
20260504040034 42 218 0.0 0.0 0.00 0.00 0.00 74 1009.0
20260504034530 42 218 0.0 0.0 0.00 0.00 0.00 73 1009.1
20260504033031 41 218 0.0 1.0 0.00 0.00 0.00 73 1009.1
20260504031529 41 218 0.0 0.0 0.00 0.00 0.00 73 1009.0
20260504030029 41 218 0.0 0.0 0.00 0.00 0.00 73 1009.1
20260504024528 40 218 0.0 0.0 0.00 0.00 0.00 72 1009.2
20260504023028 40 218 0.0 0.0 0.00 0.00 0.00 72 1009.1
20260504021527 40 218 0.0 0.0 0.00 0.00 0.00 71 1009.0
20260504020015 40 218 0.0 1.0 0.00 0.00 0.00 70 1009.1
20260504014511 41 219 0.0 1.0 0.00 0.00 0.00 69 1009.1
20260504013049 41 218 0.0 1.0 0.00 0.00 0.00 68 1009.1
20260504011547 42 218 0.0 0.0 0.00 0.00 0.00 66 1009.0
20260504010025 43 218 0.0 1.0 0.00 0.00 0.00 62 1008.8
20260504004523 44 218 0.0 1.0 0.00 0.00 0.00 58 1008.8
20260504003006 45 218 0.0 0.0 0.00 0.00 0.00 54 1008.7
20260504001502 47 218 0.0 1.0 0.00 0.00 0.00 53 1008.4
20260504000104 49 218 0.0 2.0 0.00 0.00 0.00 44 1008.3
20260503234628 50 210 0.0 4.0 0.00 0.00 0.00 36 1008.2
20260503233100 51 354 0.0 3.0 0.00 0.00 0.00 35 1008.0
20260503231559 52 18 0.0 2.0 0.00 0.00 0.00 33 1007.8
20260503230059 53 204 0.0 3.0 0.00 0.00 0.00 41 1007.5
20260503224557 54 345 0.0 4.0 0.00 0.00 0.00 31 1007.3
20260503223047 54 162 0.0 4.0 0.00 0.00 0.00 33 1007.1
20260503221556 55 196 0.0 2.0 0.00 0.00 0.00 34 1007.1
20260503220045 55 200 0.0 2.0 0.00 0.00 0.00 34 1007.1
20260503214544 55 159 0.0 5.0 0.00 0.00 0.00 34 1007.1
20260503213044 55 194 0.0 2.0 0.00 0.00 0.00 34 1007.3
20260503211542 56 191 0.0 3.0 0.00 0.00 0.00 33 1007.2
20260503210040 58 204 0.0 3.0 0.00 0.00 0.00 32 1007.5
20260503204542 60 197 0.0 2.0 0.00 0.00 0.00 31 1007.5
20260503203026 60 348 0.0 5.0 0.00 0.00 0.00 31 1007.7
20260503201523 59 1 3.0 8.0 0.00 0.00 0.00 32 1007.7
20260503200021 55 173 0.0 5.0 0.00 0.00 0.00 36 1007.8
20260503194521 55 167 0.0 6.0 0.00 0.00 0.00 36 1008.0
20260503193017 56 129 0.0 3.0 0.00 0.00 0.00 35 1008.1
20260503191518 57 72 2.0 8.0 0.00 0.00 0.00 34 1008.4
20260503190017 56 263 0.0 8.0 0.00 0.00 0.00 38 1008.4
20260503184516 56 188 0.0 7.0 0.00 0.00 0.00 37 1008.5
20260503183057 56 99 1.0 4.0 0.00 0.00 0.00 37 1008.7
20260503181552 53 186 0.0 5.0 0.00 0.00 0.00 44 1008.8
20260503180059 53 5 0.0 3.0 0.00 0.00 0.00 40 1008.8
20260503174551 52 328 1.0 4.0 0.00 0.00 0.00 42 1009.0
20260503173048 52 198 0.0 3.0 0.00 0.00 0.00 42 1009.1
20260503171550 51 333 0.0 5.0 0.00 0.00 0.00 44 1009.2